| time (UTC) | temp C | wind direction | speed KPH | gust KPH | rain 1hr cm | rain 24hr cm | rain mn cm | humidity % | barometer mb |
| 20260503211403 | 17 | 225 | 1.6 | 9.7 | 0.00 | 0.00 | 0.00 | 41 | 1028.5 |
| 20260503210903 | 17 | 255 | 11.3 | 14.5 | 0.00 | 0.00 | 0.00 | 42 | 1028.5 |
| 20260503210403 | 17 | 292 | 6.4 | 12.9 | 0.00 | 0.00 | 0.00 | 43 | 1028.5 |
| 20260503205904 | 17 | 225 | 1.6 | 4.8 | 0.00 | 0.00 | 0.00 | 43 | 1028.5 |
| 20260503205403 | 17 | 215 | 8.0 | 9.7 | 0.00 | 0.00 | 0.00 | 46 | 1028.5 |
| 20260503204903 | 17 | 292 | 0.0 | 0.0 | 0.00 | 0.00 | 0.00 | 45 | 1028.5 |
| 20260503204403 | 17 | 270 | 1.6 | 1.6 | 0.00 | 0.00 | 0.00 | 44 | 1028.5 |
| 20260503203904 | 17 | 285 | 4.8 | 9.7 | 0.00 | 0.00 | 0.00 | 46 | 1028.8 |
| 20260503203403 | 17 | 292 | 3.2 | 4.8 | 0.00 | 0.00 | 0.00 | 47 | 1028.8 |
| 20260503202404 | 17 | 270 | 3.2 | 22.5 | 0.00 | 0.00 | 0.00 | 45 | 1028.8 |
| 20260503201403 | 17 | 270 | 8.0 | 9.7 | 0.00 | 0.00 | 0.00 | 45 | 1028.8 |
| 20260503200903 | 17 | 282 | 1.6 | 12.9 | 0.00 | 0.00 | 0.00 | 46 | 1028.8 |
| 20260503200403 | 17 | 225 | 0.0 | 0.0 | 0.00 | 0.00 | 0.00 | 47 | 1029.1 |
| 20260503195903 | 17 | 226 | 0.0 | 0.0 | 0.00 | 0.00 | 0.00 | 45 | 1029.5 |
| 20260503195403 | 17 | 270 | 3.2 | 19.3 | 0.00 | 0.00 | 0.00 | 44 | 1029.5 |
| 20260503194903 | 17 | 270 | 4.8 | 16.1 | 0.00 | 0.00 | 0.00 | 44 | 1029.5 |
| 20260503194403 | 17 | 225 | 4.8 | 16.1 | 0.00 | 0.00 | 0.00 | 44 | 1029.5 |
| 20260503193903 | 17 | 287 | 3.2 | 24.1 | 0.00 | 0.00 | 0.00 | 43 | 1029.5 |
| 20260503193403 | 17 | 270 | 12.9 | 12.9 | 0.00 | 0.00 | 0.00 | 43 | 1029.5 |
| 20260503192903 | 17 | 248 | 0.0 | 1.6 | 0.00 | 0.00 | 0.00 | 43 | 1029.7 |
| 20260503192403 | 17 | 279 | 1.6 | 11.3 | 0.00 | 0.00 | 0.00 | 44 | 1029.8 |
| 20260503191904 | 17 | 248 | 9.7 | 11.3 | 0.00 | 0.00 | 0.00 | 43 | 1029.8 |
| 20260503191403 | 17 | 315 | 8.0 | 11.3 | 0.00 | 0.00 | 0.00 | 43 | 1029.8 |
| 20260503190903 | 17 | 273 | 0.0 | 16.1 | 0.00 | 0.00 | 0.00 | 45 | 1029.8 |
| 20260503190403 | 17 | 202 | 11.3 | 16.1 | 0.00 | 0.00 | 0.00 | 45 | 1029.8 |
| 20260503185904 | 17 | 285 | 0.0 | 8.0 | 0.00 | 0.00 | 0.00 | 46 | 1030.1 |
| 20260503184403 | 17 | 261 | 6.4 | 8.0 | 0.00 | 0.00 | 0.00 | 47 | 1030.1 |
| 20260503183903 | 17 | 248 | 3.2 | 24.1 | 0.00 | 0.00 | 0.00 | 46 | 1030.1 |
| 20260503183403 | 17 | 292 | 11.3 | 24.1 | 0.00 | 0.00 | 0.00 | 47 | 1030.1 |
| 20260503182404 | 16 | 248 | 0.0 | 12.9 | 0.00 | 0.00 | 0.00 | 46 | 1030.5 |
| 20260503181903 | 16 | 292 | 4.8 | 12.9 | 0.00 | 0.00 | 0.00 | 46 | 1030.5 |
| 20260503181402 | 16 | 278 | 8.0 | 8.0 | 0.00 | 0.00 | 0.00 | 48 | 1030.5 |
| 20260503180904 | 16 | 308 | 11.3 | 12.9 | 0.00 | 0.00 | 0.00 | 48 | 1030.5 |
| 20260503180403 | 16 | 292 | 4.8 | 11.3 | 0.00 | 0.00 | 0.00 | 47 | 1030.6 |
| 20260503175903 | 16 | 296 | 8.0 | 9.7 | 0.00 | 0.00 | 0.00 | 47 | 1030.7 |
| 20260503174903 | 16 | 270 | 8.0 | 19.3 | 0.00 | 0.00 | 0.00 | 44 | 1030.8 |
| 20260503174403 | 16 | 252 | 19.3 | 19.3 | 0.00 | 0.00 | 0.00 | 44 | 1030.8 |
| 20260503173903 | 16 | 229 | 3.2 | 3.2 | 0.00 | 0.00 | 0.00 | 45 | 1030.8 |
| 20260503173403 | 16 | 225 | 4.8 | 9.7 | 0.00 | 0.00 | 0.00 | 45 | 1030.8 |
| 20260503172903 | 16 | 275 | 9.7 | 12.9 | 0.00 | 0.00 | 0.00 | 45 | 1030.9 |
| 20260503172404 | 16 | 248 | 4.8 | 12.9 | 0.00 | 0.00 | 0.00 | 44 | 1031.2 |
| 20260503171403 | 16 | 253 | 3.2 | 16.1 | 0.00 | 0.00 | 0.00 | 43 | 1031.2 |
| 20260503170403 | 16 | 315 | 17.7 | 20.9 | 0.00 | 0.00 | 0.00 | 44 | 1031.2 |
| 20260503150403 | 14 | 248 | 9.7 | 11.3 | 0.00 | 0.00 | 0.00 | 42 | 1032.0 |
| 20260503131403 | 8 | 248 | 0.0 | 0.0 | 0.00 | 0.00 | 0.00 | 57 | 1033.2 |
| 20260503110403 | 2 | 225 | 0.0 | 0.0 | 0.00 | 0.00 | 0.00 | 79 | 1015.3 |
| 20260503090403 | 2 | 202 | 0.0 | 0.0 | 0.00 | 0.00 | 0.00 | 79 | 1015.4 |
| 20260503081404 | 2 | 202 | 0.0 | 0.0 | 0.00 | 0.00 | 0.00 | 79 | 1015.6 |
| 20260503080903 | 2 | 202 | 0.0 | 0.0 | 0.00 | 0.00 | 0.00 | 79 | 1015.6 |
| 20260503080403 | 2 | 202 | 0.0 | 0.0 | 0.00 | 0.00 | 0.00 | 79 | 1015.6 |
| 20260503072904 | 2 | 202 | 0.0 | 0.0 | 0.00 | 0.00 | 0.00 | 78 | 1015.4 |
| 20260503072403 | 2 | 202 | 0.0 | 0.0 | 0.00 | 0.00 | 0.00 | 78 | 1015.6 |
| 20260503071904 | 2 | 202 | 0.0 | 1.6 | 0.00 | 0.00 | 0.00 | 78 | 1015.6 |
| 20260503071403 | 2 | 202 | 0.0 | 1.6 | 0.00 | 0.00 | 0.00 | 77 | 1015.6 |
| 20260503070904 | 2 | 202 | 0.0 | 0.0 | 0.00 | 0.00 | 0.00 | 77 | 1015.6 |
| 20260503070404 | 2 | 202 | 0.0 | 0.0 | 0.00 | 0.00 | 0.00 | 77 | 1015.6 |
| 20260503054903 | 2 | 202 | 0.0 | 0.0 | 0.00 | 0.05 | 0.00 | 75 | 1015.9 |
| 20260503053903 | 3 | 202 | 0.0 | 0.0 | 0.00 | 0.05 | 0.00 | 75 | 1015.9 |
| 20260503053403 | 3 | 202 | 0.0 | 0.0 | 0.00 | 0.05 | 0.00 | 75 | 1015.9 |
| 20260503052904 | 3 | 202 | 0.0 | 0.0 | 0.00 | 0.05 | 0.00 | 75 | 1015.9 |
| 20260503052403 | 3 | 202 | 0.0 | 0.0 | 0.00 | 0.05 | 0.00 | 75 | 1015.9 |
| 20260503051903 | 3 | 202 | 0.0 | 0.0 | 0.00 | 0.05 | 0.00 | 75 | 1016.3 |
| 20260503050904 | 3 | 202 | 0.0 | 0.0 | 0.00 | 0.05 | 0.00 | 75 | 1016.3 |
| 20260503045904 | 3 | 180 | 0.0 | 0.0 | 0.00 | 0.05 | 0.00 | 74 | 1016.3 |
| 20260503045403 | 3 | 202 | 0.0 | 0.0 | 0.00 | 0.05 | 0.00 | 74 | 1016.3 |
| 20260503044904 | 3 | 202 | 0.0 | 0.0 | 0.00 | 0.05 | 0.00 | 74 | 1016.3 |
| 20260503044403 | 3 | 202 | 0.0 | 0.0 | 0.00 | 0.05 | 0.00 | 74 | 1016.3 |
| 20260503043403 | 3 | 202 | 0.0 | 0.0 | 0.00 | 0.05 | 0.00 | 73 | 1016.3 |
| 20260503042904 | 3 | 180 | 0.0 | 0.0 | 0.00 | 0.05 | 0.00 | 73 | 1016.3 |
| 20260503042403 | 3 | 180 | 0.0 | 0.0 | 0.00 | 0.05 | 0.00 | 73 | 1016.3 |
| 20260503041904 | 3 | 180 | 0.0 | 0.0 | 0.00 | 0.05 | 0.00 | 73 | 1016.4 |
| 20260503041403 | 3 | 180 | 0.0 | 0.0 | 0.00 | 0.05 | 0.00 | 72 | 1016.6 |
| 20260503040403 | 3 | 180 | 0.0 | 0.0 | 0.00 | 0.05 | 0.00 | 70 | 1016.3 |
| 20260503035904 | 3 | 180 | 0.0 | 0.0 | 0.00 | 0.05 | 0.05 | 70 | 1016.4 |
| 20260503035404 | 4 | 180 | 0.0 | 0.0 | 0.00 | 0.05 | 0.05 | 70 | 1016.6 |
| 20260503034903 | 4 | 180 | 0.0 | 0.0 | 0.00 | 0.05 | 0.05 | 70 | 1016.3 |
| 20260503034403 | 4 | 180 | 0.0 | 0.0 | 0.00 | 0.05 | 0.05 | 69 | 1016.6 |
| 20260503033904 | 4 | 180 | 0.0 | 0.0 | 0.00 | 0.05 | 0.05 | 69 | 1016.6 |
| 20260503033404 | 5 | 180 | 0.0 | 0.0 | 0.00 | 0.05 | 0.05 | 68 | 1016.4 |
| 20260503032903 | 5 | 180 | 0.0 | 0.0 | 0.00 | 0.05 | 0.05 | 68 | 1016.6 |
| 20260503032404 | 5 | 180 | 0.0 | 0.0 | 0.00 | 0.05 | 0.05 | 68 | 1016.6 |
| 20260503031903 | 5 | 180 | 0.0 | 0.0 | 0.00 | 0.05 | 0.05 | 68 | 1016.3 |
| 20260503031404 | 5 | 180 | 0.0 | 0.0 | 0.00 | 0.05 | 0.05 | 68 | 1016.3 |
| 20260503030904 | 5 | 180 | 0.0 | 0.0 | 0.00 | 0.05 | 0.05 | 67 | 1016.3 |
| 20260503025904 | 6 | 180 | 0.0 | 0.0 | 0.00 | 0.05 | 0.05 | 67 | 1016.4 |
| 20260503024903 | 6 | 180 | 0.0 | 0.0 | 0.00 | 0.05 | 0.05 | 67 | 1016.6 |
| 20260503023904 | 6 | 180 | 0.0 | 0.0 | 0.00 | 0.05 | 0.05 | 66 | 1016.6 |
| 20260503023404 | 6 | 180 | 0.0 | 0.0 | 0.00 | 0.05 | 0.05 | 66 | 1016.6 |
| 20260503022903 | 6 | 180 | 0.0 | 0.0 | 0.00 | 0.05 | 0.05 | 66 | 1016.7 |
| 20260503022403 | 6 | 202 | 0.0 | 0.0 | 0.00 | 0.05 | 0.05 | 66 | 1016.9 |
| 20260503021904 | 6 | 202 | 0.0 | 0.0 | 0.00 | 0.05 | 0.05 | 66 | 1016.9 |
| 20260503021403 | 6 | 202 | 0.0 | 0.0 | 0.00 | 0.05 | 0.05 | 66 | 1016.6 |
| 20260503020904 | 6 | 180 | 0.0 | 0.0 | 0.00 | 0.05 | 0.05 | 66 | 1016.7 |
| 20260503020404 | 6 | 180 | 0.0 | 0.0 | 0.00 | 0.05 | 0.05 | 66 | 1016.9 |
| 20260503015903 | 6 | 180 | 0.0 | 0.0 | 0.00 | 0.05 | 0.05 | 66 | 1016.9 |
| 20260503015404 | 6 | 180 | 0.0 | 0.0 | 0.00 | 0.05 | 0.05 | 65 | 1016.9 |
| 20260503014904 | 6 | 180 | 0.0 | 0.0 | 0.00 | 0.05 | 0.05 | 65 | 1016.9 |
| 20260503014404 | 6 | 180 | 0.0 | 0.0 | 0.00 | 0.05 | 0.05 | 65 | 1016.9 |
| 20260503013903 | 6 | 180 | 0.0 | 0.0 | 0.00 | 0.05 | 0.05 | 65 | 1016.9 |
| 20260503013403 | 6 | 202 | 0.0 | 0.0 | 0.00 | 0.05 | 0.05 | 64 | 1016.7 |
| 20260503012903 | 6 | 202 | 0.0 | 0.0 | 0.00 | 0.05 | 0.05 | 64 | 1016.9 |
| 20260503012403 | 6 | 225 | 0.0 | 0.0 | 0.00 | 0.05 | 0.05 | 64 | 1016.9 |
| 20260503011903 | 6 | 225 | 0.0 | 0.0 | 0.00 | 0.05 | 0.05 | 63 | 1016.6 |
| 20260503010404 | 6 | 248 | 0.0 | 0.0 | 0.00 | 0.05 | 0.05 | 63 | 1016.9 |
| 20260503005904 | 6 | 248 | 0.0 | 0.0 | 0.00 | 0.05 | 0.05 | 63 | 1016.6 |
| 20260503005403 | 6 | 248 | 0.0 | 0.0 | 0.00 | 0.05 | 0.05 | 63 | 1016.9 |
| 20260503004904 | 6 | 248 | 0.0 | 0.0 | 0.00 | 0.05 | 0.05 | 63 | 1016.6 |
| 20260503004404 | 6 | 248 | 0.0 | 0.0 | 0.00 | 0.05 | 0.05 | 62 | 1016.6 |
| 20260503003903 | 6 | 292 | 0.0 | 0.0 | 0.00 | 0.05 | 0.05 | 62 | 1016.6 |
| 20260503003403 | 6 | 292 | 0.0 | 0.0 | 0.00 | 0.05 | 0.05 | 63 | 1016.6 |
| 20260503002903 | 6 | 270 | 0.0 | 0.0 | 0.00 | 0.05 | 0.05 | 63 | 1016.6 |
| 20260503002403 | 6 | 270 | 0.0 | 0.0 | 0.00 | 0.05 | 0.05 | 62 | 1016.6 |
| 20260503001904 | 6 | 270 | 0.0 | 0.0 | 0.00 | 0.05 | 0.05 | 62 | 1016.6 |
| 20260503001403 | 6 | 270 | 0.0 | 0.0 | 0.00 | 0.05 | 0.05 | 62 | 1016.6 |
| 20260503000903 | 6 | 248 | 0.0 | 0.0 | 0.00 | 0.05 | 0.05 | 63 | 1016.6 |
| 20260503000404 | 6 | 248 | 0.0 | 0.0 | 0.00 | 0.05 | 0.05 | 62 | 1016.6 |
| 20260502235403 | 7 | 248 | 0.0 | 0.0 | 0.00 | 0.05 | 0.05 | 61 | 1016.6 |
| 20260502234904 | 7 | 248 | 0.0 | 0.0 | 0.00 | 0.05 | 0.05 | 61 | 1016.6 |
| 20260502234404 | 7 | 292 | 0.0 | 0.0 | 0.00 | 0.05 | 0.05 | 60 | 1016.6 |
| 20260502233903 | 7 | 248 | 0.0 | 0.0 | 0.00 | 0.05 | 0.05 | 60 | 1016.6 |
| 20260502233403 | 7 | 258 | 0.0 | 0.0 | 0.00 | 0.05 | 0.05 | 60 | 1016.6 |
| 20260502232904 | 7 | 270 | 0.0 | 0.0 | 0.00 | 0.05 | 0.05 | 59 | 1016.6 |
| 20260502232403 | 7 | 248 | 0.0 | 0.0 | 0.00 | 0.05 | 0.05 | 59 | 1016.6 |
| 20260502231904 | 7 | 248 | 0.0 | 0.0 | 0.00 | 0.05 | 0.05 | 59 | 1016.6 |
| 20260502231403 | 7 | 292 | 0.0 | 0.0 | 0.00 | 0.05 | 0.05 | 58 | 1016.6 |
| 20260502230403 | 8 | 250 | 0.0 | 1.6 | 0.00 | 0.05 | 0.05 | 58 | 1016.6 |
| 20260502225904 | 8 | 248 | 0.0 | 0.0 | 0.00 | 0.05 | 0.05 | 58 | 1016.6 |
| 20260502225404 | 8 | 248 | 0.0 | 0.0 | 0.00 | 0.05 | 0.05 | 58 | 1016.6 |
| 20260502224904 | 8 | 272 | 0.0 | 0.0 | 0.00 | 0.05 | 0.05 | 58 | 1016.6 |
| 20260502223903 | 8 | 248 | 0.0 | 0.0 | 0.00 | 0.05 | 0.05 | 58 | 1016.6 |
| 20260502223403 | 8 | 265 | 0.0 | 0.0 | 0.00 | 0.05 | 0.05 | 57 | 1016.6 |
| 20260502222903 | 8 | 248 | 0.0 | 0.0 | 0.00 | 0.05 | 0.05 | 58 | 1016.6 |
| 20260502222403 | 8 | 269 | 0.0 | 0.0 | 0.00 | 0.05 | 0.05 | 57 | 1016.6 |
| 20260502221904 | 8 | 270 | 0.0 | 0.0 | 0.00 | 0.05 | 0.05 | 56 | 1016.9 |
| 20260502221403 | 8 | 292 | 0.0 | 0.0 | 0.00 | 0.05 | 0.05 | 57 | 1016.7 |
| 20260502220903 | 8 | 248 | 0.0 | 0.0 | 0.00 | 0.05 | 0.05 | 58 | 1016.9 |
| 20260502220403 | 8 | 248 | 0.0 | 0.0 | 0.00 | 0.05 | 0.05 | 57 | 1016.9 |
| 20260502215904 | 8 | 270 | 0.0 | 0.0 | 0.00 | 0.05 | 0.05 | 57 | 1016.9 |
| 20260502215403 | 8 | 314 | 0.0 | 0.0 | 0.00 | 0.05 | 0.05 | 57 | 1016.9 |
| 20260502214905 | 8 | 301 | 1.6 | 1.6 | 0.00 | 0.05 | 0.05 | 57 | 1016.9 |
| 20260502213904 | 8 | 315 | 0.0 | 1.6 | 0.00 | 0.05 | 0.05 | 57 | 1016.9 |
| 20260502213404 | 8 | 299 | 0.0 | 0.0 | 0.00 | 0.05 | 0.05 | 56 | 1016.8 |
| 20260502212903 | 8 | 292 | 0.0 | 0.0 | 0.00 | 0.05 | 0.05 | 56 | 1016.6 |
| 20260502212403 | 8 | 248 | 0.0 | 1.6 | 0.00 | 0.05 | 0.05 | 57 | 1016.7 |
| 20260502211903 | 8 | 314 | 0.0 | 1.6 | 0.00 | 0.05 | 0.05 | 57 | 1016.7 |